カタログに戻る

STARLINK-36515

運用中通信VLEO
NORAD 67430·PAYLOAD·🇺🇸 United States

打ち上げ Jan 12, 2026 から Cape Canaveral Space Force Station

Loading…

次のパス (今後24時間)

TLE

最新Source: CelesTrak SupGP

元期: Sep 14, 2026, 20:54 UTC

1 67430C 26005AC  26257.87131944  .00028808  00000+0  10437-2 0  2571
2 67430  43.0012 249.7358 0001581 265.3567 236.9202 15.27555725    18

AllMySatでSTARLINK-36515をリアルタイム追跡

Download on the App Store